AAL324 KRNO-KDFW

Flight info

Callsign AAL324
Flight time 2h 24m
Altitude 35000
Route ZEFFR9 PESKE MVA JSICA KROST BCE KD42Q PUMPS IMMAS TXO TURKI VKTRY2
Aircraft B738/M-SDE3GHIJ3J4RWXZ/LB1

Departure

Time 2026-05-04 21:44
Airport Reno Tahoe International Airport (KRNO)

Arrival

Time 2026-05-05 00:08
Airport Dallas Fort Worth International Airport (KDFW)
Time Latitude Longitude Altitude Speed Heading
2026-05-04 21:05 39.50747 -119.77249 4417 ft 0 kts 217°
2026-05-04 21:36 39.50752 -119.77243 4417 ft 3 kts 217°
2026-05-04 21:36 39.50754 -119.77242 4417 ft 0 kts 217°
2026-05-04 21:36 39.50761 -119.77234 4417 ft 3 kts 217°
2026-05-04 21:36 39.50774 -119.77222 4419 ft 0 kts 217°
2026-05-04 21:37 39.50774 -119.77221 4417 ft 0 kts 217°
2026-05-04 21:39 39.50774 -119.77222 4417 ft 0 kts 217°
2026-05-04 21:39 39.50769 -119.77221 4417 ft 1 kts 176°
2026-05-04 21:39 39.50770 -119.77207 4417 ft 3 kts 68°
2026-05-04 21:39 39.50796 -119.77164 4417 ft 9 kts 39°
2026-05-04 21:40 39.50879 -119.77149 4417 ft 14 kts 359°
2026-05-04 21:40 39.50979 -119.77150 4417 ft 14 kts
2026-05-04 21:40 39.51073 -119.77150 4419 ft 13 kts 360°
2026-05-04 21:40 39.51164 -119.77150 4418 ft 13 kts 360°
2026-05-04 21:41 39.51252 -119.77149 4418 ft 13 kts 360°
2026-05-04 21:41 39.51338 -119.77148 4418 ft 12 kts
2026-05-04 21:41 39.51375 -119.77082 4418 ft 10 kts 88°
2026-05-04 21:41 39.51376 -119.77005 4418 ft 8 kts 89°
2026-05-04 21:42 39.51376 -119.76929 4419 ft 9 kts 90°
2026-05-04 21:42 39.51377 -119.76841 4418 ft 11 kts 90°
2026-05-04 21:42 39.51377 -119.76730 4417 ft 12 kts 90°
2026-05-04 21:42 39.51344 -119.76677 4418 ft 9 kts 180°
2026-05-04 21:43 39.51240 -119.76677 4417 ft 35 kts 180°
2026-05-04 21:43 39.50759 -119.76677 4418 ft 101 kts 180°
2026-05-04 21:43 39.49852 -119.76678 4418 ft 157 kts 180°
2026-05-04 21:43 39.48651 -119.76678 4771 ft 176 kts 180°
2026-05-04 21:44 39.47465 -119.76687 5629 ft 171 kts 181°
2026-05-04 21:44 39.46213 -119.76748 6065 ft 193 kts 182°
2026-05-04 21:44 39.44785 -119.76829 6241 ft 218 kts 182°
2026-05-04 21:44 39.43192 -119.76917 6402 ft 241 kts 183°
2026-05-04 21:45 39.41453 -119.76963 6721 ft 257 kts 181°
2026-05-04 21:45 39.39580 -119.76963 6951 ft 280 kts 181°
2026-05-04 21:45 39.37597 -119.76961 7621 ft 287 kts 181°
2026-05-04 21:45 39.35594 -119.76963 8457 ft 287 kts 181°
2026-05-04 21:46 39.33593 -119.76945 9276 ft 290 kts 176°
2026-05-04 21:46 39.31654 -119.76155 9919 ft 298 kts 147°
2026-05-04 21:46 39.30100 -119.74411 10493 ft 309 kts 134°
2026-05-04 21:46 39.28590 -119.72275 10666 ft 334 kts 131°
2026-05-04 21:47 39.27017 -119.69939 10911 ft 353 kts 130°
2026-05-04 21:47 39.25383 -119.67511 11453 ft 362 kts 130°
2026-05-04 21:47 39.23713 -119.65058 12186 ft 364 kts 130°
2026-05-04 21:47 39.22035 -119.62619 13003 ft 363 kts 130°
2026-05-04 21:48 39.20348 -119.60181 13792 ft 364 kts 130°
2026-05-04 21:48 39.18652 -119.57740 14524 ft 366 kts 130°
2026-05-04 21:48 39.16948 -119.55293 15229 ft 368 kts 130°
2026-05-04 21:48 39.15229 -119.52836 15913 ft 370 kts 131°
2026-05-04 21:49 39.13418 -119.50457 16548 ft 373 kts 133°
2026-05-04 21:49 39.11539 -119.48131 17186 ft 376 kts 134°
2026-05-04 21:49 39.09635 -119.45809 17818 ft 378 kts 134°
2026-05-04 21:49 39.07721 -119.43476 18433 ft 380 kts 134°
2026-05-04 21:50 39.05796 -119.41116 19012 ft 383 kts 134°
2026-05-04 21:50 39.03857 -119.38728 19539 ft 387 kts 134°
2026-05-04 21:50 39.01933 -119.36352 20049 ft 390 kts 134°
2026-05-04 21:50 38.99968 -119.33921 20589 ft 393 kts 134°
2026-05-04 21:51 38.97988 -119.31470 21085 ft 396 kts 134°
2026-05-04 21:51 38.95992 -119.29001 21553 ft 400 kts 134°
2026-05-04 21:51 38.93981 -119.26516 21998 ft 403 kts 134°
2026-05-04 21:51 38.91950 -119.24007 22447 ft 406 kts 134°
2026-05-04 21:52 38.89904 -119.21483 22924 ft 409 kts 134°
2026-05-04 21:52 38.87846 -119.18946 23380 ft 411 kts 134°
2026-05-04 21:52 38.85769 -119.16388 23781 ft 415 kts 134°
2026-05-04 21:52 38.83701 -119.13843 24165 ft 418 kts 134°
2026-05-04 21:53 38.81597 -119.11255 24552 ft 421 kts 134°
2026-05-04 21:53 38.79478 -119.08652 24917 ft 424 kts 134°
2026-05-04 21:53 38.77607 -119.05739 25211 ft 426 kts 119°
2026-05-04 21:53 38.76495 -119.02221 25543 ft 428 kts 105°
2026-05-04 21:54 38.75997 -118.99771 25754 ft 430 kts 104°
2026-05-04 21:54 38.75278 -118.96029 26023 ft 435 kts 104°
2026-05-04 21:54 38.74563 -118.92244 26284 ft 439 kts 104°
2026-05-04 21:54 38.73837 -118.88434 26572 ft 442 kts 104°
2026-05-04 21:55 38.73091 -118.84588 26851 ft 446 kts 105°
2026-05-04 21:55 38.72328 -118.80723 27106 ft 450 kts 105°
2026-05-04 21:55 38.71549 -118.76820 27350 ft 454 kts 105°
2026-05-04 21:55 38.70758 -118.72892 27611 ft 457 kts 106°
2026-05-04 21:56 38.69958 -118.68933 27859 ft 460 kts 106°
2026-05-04 21:56 38.69152 -118.64951 28079 ft 464 kts 107°
2026-05-04 21:56 38.68339 -118.60941 28333 ft 467 kts 107°
2026-05-04 21:56 38.67519 -118.56902 28566 ft 470 kts 107°
2026-05-04 21:57 38.66703 -118.52887 28766 ft 474 kts 107°
2026-05-04 21:57 38.65868 -118.48785 28975 ft 478 kts 107°
2026-05-04 21:57 38.65025 -118.44654 29183 ft 482 kts 108°
2026-05-04 21:57 38.64176 -118.40499 29400 ft 485 kts 108°
2026-05-04 21:58 38.63318 -118.36314 29575 ft 488 kts 108°
2026-05-04 21:58 38.62453 -118.32099 29782 ft 491 kts 108°
2026-05-04 21:58 38.61583 -118.27867 30030 ft 493 kts 109°
2026-05-04 21:58 38.60709 -118.23627 30300 ft 494 kts 109°
2026-05-04 21:59 38.59833 -118.19376 30609 ft 494 kts 109°
2026-05-04 21:59 38.58956 -118.15138 30933 ft 493 kts 109°
2026-05-04 21:59 38.58078 -118.10891 31233 ft 493 kts 110°
2026-05-04 21:59 38.57198 -118.06656 31513 ft 494 kts 110°
2026-05-04 22:00 38.56410 -118.02367 31769 ft 498 kts 104°
2026-05-04 22:00 38.56048 -117.97942 32042 ft 502 kts 99°
2026-05-04 22:00 38.55818 -117.93475 32215 ft 505 kts 98°
2026-05-04 22:01 38.55391 -117.84435 32524 ft 511 kts 99°
2026-05-04 22:01 38.55165 -117.79986 32908 ft 507 kts 99°
2026-05-04 22:01 38.54922 -117.75507 33251 ft 504 kts 99°
2026-05-04 22:01 38.54665 -117.71036 33503 ft 504 kts 100°
2026-05-04 22:02 38.54399 -117.66561 33703 ft 505 kts 100°
2026-05-04 22:02 38.54130 -117.62084 33911 ft 506 kts 100°
2026-05-04 22:02 38.53860 -117.57603 34175 ft 505 kts 100°
2026-05-04 22:02 38.53592 -117.53132 34480 ft 503 kts 100°
2026-05-04 22:03 38.53325 -117.48687 34784 ft 501 kts 101°
2026-05-04 22:03 38.53056 -117.44250 34941 ft 503 kts 101°
2026-05-04 22:03 38.52782 -117.39774 34916 ft 506 kts 101°
2026-05-04 22:04 38.52233 -117.30831 34926 ft 504 kts 101°
2026-05-04 22:04 38.51583 -117.21935 34924 ft 501 kts 103°
2026-05-04 22:05 38.50778 -117.13175 34924 ft 500 kts 104°
2026-05-04 22:05 38.49957 -117.04362 34915 ft 500 kts 104°
2026-05-04 22:06 38.49153 -116.95516 34918 ft 502 kts 104°
2026-05-04 22:06 38.48351 -116.86643 34919 ft 505 kts 104°
2026-05-04 22:07 38.47536 -116.77708 34922 ft 509 kts 104°
2026-05-04 22:07 38.46711 -116.68716 34916 ft 511 kts 105°
2026-05-04 22:08 38.45872 -116.59682 34924 ft 514 kts 105°
2026-05-04 22:08 38.45020 -116.50580 34929 ft 519 kts 105°
2026-05-04 22:09 38.44153 -116.41394 34908 ft 523 kts 105°
2026-05-04 22:09 38.43276 -116.32159 34921 ft 525 kts 106°
2026-05-04 22:10 38.42395 -116.22959 34920 ft 527 kts 107°
2026-05-04 22:10 38.41239 -116.13776 34919 ft 521 kts 112°
2026-05-04 22:11 38.39649 -116.04767 34925 ft 519 kts 114°
2026-05-04 22:11 38.38008 -115.95784 34913 ft 521 kts 114°
2026-05-04 22:12 38.36414 -115.86768 34920 ft 522 kts 113°
2026-05-04 22:12 38.34849 -115.77733 34917 ft 523 kts 113°
2026-05-04 22:13 38.33292 -115.68745 34923 ft 523 kts 113°
2026-05-04 22:13 38.31715 -115.59698 34922 ft 523 kts 113°
2026-05-04 22:14 38.30126 -115.50654 34941 ft 524 kts 113°
2026-05-04 22:14 38.28526 -115.41590 34910 ft 524 kts 113°
2026-05-04 22:15 38.26928 -115.32570 34924 ft 521 kts 113°
2026-05-04 22:15 38.25324 -115.23576 34904 ft 520 kts 113°
2026-05-04 22:16 38.23730 -115.14671 34912 ft 519 kts 113°
2026-05-04 22:16 38.22120 -115.05721 34907 ft 518 kts 113°
2026-05-04 22:17 38.20503 -114.96781 34910 ft 519 kts 113°
2026-05-04 22:17 38.18877 -114.87829 34910 ft 520 kts 113°
2026-05-04 22:18 38.17238 -114.78854 34902 ft 522 kts 113°
2026-05-04 22:18 38.15586 -114.69839 34894 ft 526 kts 112°
2026-05-04 22:19 38.13915 -114.60765 34889 ft 529 kts 113°
2026-05-04 22:19 38.12228 -114.51651 34894 ft 531 kts 113°
2026-05-04 22:20 38.10530 -114.42510 34898 ft 534 kts 113°
2026-05-04 22:20 38.08813 -114.33317 34912 ft 536 kts 113°
2026-05-04 22:21 38.07091 -114.24139 34899 ft 539 kts 113°
2026-05-04 22:21 38.05345 -114.14866 34897 ft 540 kts 113°
2026-05-04 22:22 38.03588 -114.05575 34908 ft 542 kts 113°
2026-05-04 22:22 38.01824 -113.96288 34901 ft 540 kts 113°
2026-05-04 22:23 38.00057 -113.87023 34898 ft 539 kts 114°
2026-05-04 22:23 37.98283 -113.77785 34900 ft 539 kts 114°
2026-05-04 22:24 37.96508 -113.68572 34894 ft 537 kts 114°
2026-05-04 22:24 37.94728 -113.59386 34899 ft 536 kts 114°
2026-05-04 22:25 37.92943 -113.50218 34897 ft 535 kts 114°
2026-05-04 22:25 37.91170 -113.41140 34902 ft 534 kts 114°
2026-05-04 22:26 37.89378 -113.32009 34910 ft 534 kts 114°
2026-05-04 22:26 37.87579 -113.22890 34911 ft 534 kts 114°
2026-05-04 22:27 37.85772 -113.13770 34917 ft 535 kts 114°
2026-05-04 22:27 37.83954 -113.04634 34916 ft 536 kts 114°
2026-05-04 22:28 37.82128 -112.95491 34939 ft 537 kts 114°
2026-05-04 22:28 37.80291 -112.86334 34940 ft 538 kts 114°
2026-05-04 22:29 37.78444 -112.77164 34950 ft 538 kts 114°
2026-05-04 22:29 37.76588 -112.67990 34954 ft 539 kts 114°
2026-05-04 22:30 37.74725 -112.58816 34969 ft 539 kts 114°
2026-05-04 22:30 37.72853 -112.49653 34984 ft 538 kts 114°
2026-05-04 22:31 37.70980 -112.40507 34989 ft 537 kts 114°
2026-05-04 22:31 37.69114 -112.31441 35011 ft 536 kts 115°
2026-05-04 22:32 37.66818 -112.22572 35014 ft 528 kts 121°
2026-05-04 22:32 37.64247 -112.13913 35022 ft 526 kts 122°
2026-05-04 22:33 37.61674 -112.05278 35024 ft 526 kts 121°
2026-05-04 22:33 37.59136 -111.96611 35022 ft 527 kts 121°
2026-05-04 22:34 37.56615 -111.87931 35019 ft 528 kts 121°
2026-05-04 22:34 37.54078 -111.79215 34997 ft 529 kts 121°
2026-05-04 22:35 37.51550 -111.70561 34998 ft 530 kts 121°
2026-05-04 22:35 37.48988 -111.61835 34982 ft 531 kts 121°
2026-05-04 22:36 37.46415 -111.53103 34958 ft 532 kts 120°
2026-05-04 22:36 37.43833 -111.44364 34955 ft 532 kts 121°
2026-05-04 22:37 37.41250 -111.35640 34935 ft 532 kts 120°
2026-05-04 22:37 37.38657 -111.26913 34937 ft 533 kts 120°
2026-05-04 22:38 37.36054 -111.18186 34900 ft 533 kts 120°
2026-05-04 22:38 37.33470 -111.09548 34909 ft 531 kts 120°
2026-05-04 22:39 37.30869 -111.00878 34913 ft 530 kts 120°
2026-05-04 22:39 37.28257 -110.92204 34910 ft 531 kts 120°
2026-05-04 22:40 37.25640 -110.83538 34899 ft 531 kts 120°
2026-05-04 22:40 37.23008 -110.74856 34904 ft 532 kts 120°
2026-05-04 22:41 37.20368 -110.66164 34871 ft 533 kts 120°
2026-05-04 22:41 37.18169 -110.58942 34861 ft 533 kts 120°
2026-05-04 22:42 37.15517 -110.50266 34901 ft 533 kts 120°
2026-05-04 22:42 37.12855 -110.41582 34907 ft 535 kts 120°
2026-05-04 22:43 37.10176 -110.32870 34896 ft 537 kts 120°
2026-05-04 22:43 37.07479 -110.24125 34904 ft 538 kts 120°
2026-05-04 22:44 37.04775 -110.15381 34910 ft 538 kts 120°
2026-05-04 22:44 37.02067 -110.06646 34905 ft 539 kts 120°
2026-05-04 22:45 36.99362 -109.97972 34915 ft 537 kts 120°
2026-05-04 22:45 36.95132 -109.85007 34926 ft 536 kts 121°
2026-05-04 22:46 36.92281 -109.76385 34925 ft 537 kts 121°
2026-05-04 22:46 36.89441 -109.67770 34948 ft 536 kts 120°
2026-05-04 22:47 36.86597 -109.59140 34952 ft 537 kts 120°
2026-05-04 22:47 36.83764 -109.50565 34953 ft 538 kts 120°
2026-05-04 22:48 36.80906 -109.41941 34966 ft 538 kts 121°
2026-05-04 22:48 36.78036 -109.33309 34977 ft 538 kts 120°
2026-05-04 22:49 36.75156 -109.24675 34973 ft 539 kts 120°
2026-05-04 22:49 36.72265 -109.16035 34974 ft 540 kts 120°
2026-05-04 22:50 36.69374 -109.07412 34980 ft 539 kts 121°
2026-05-04 22:50 36.66492 -108.98845 35005 ft 540 kts 121°
2026-05-04 22:51 36.63583 -108.90223 34995 ft 540 kts 121°
2026-05-04 22:51 36.60666 -108.81602 34981 ft 541 kts 120°
2026-05-04 22:52 36.57734 -108.72964 34986 ft 542 kts 120°
2026-05-04 22:52 36.54790 -108.64321 34977 ft 543 kts 120°
2026-05-04 22:53 36.51835 -108.55658 34981 ft 544 kts 120°
2026-05-04 22:53 36.48872 -108.46997 34977 ft 544 kts 120°
2026-05-04 22:54 36.45917 -108.38394 34982 ft 545 kts 120°
2026-05-04 22:54 36.42932 -108.29724 34978 ft 546 kts 120°
2026-05-04 22:55 36.39937 -108.21044 34972 ft 547 kts 120°
2026-05-04 22:55 36.36937 -108.12376 34980 ft 547 kts 120°
2026-05-04 22:56 36.33929 -108.03711 34984 ft 547 kts 120°
2026-05-04 22:56 36.30916 -107.95060 35002 ft 547 kts 120°
2026-05-04 22:57 36.27893 -107.86401 34999 ft 547 kts 120°
2026-05-04 22:57 36.24866 -107.77753 34981 ft 547 kts 120°
2026-05-04 22:58 36.21829 -107.69101 34979 ft 547 kts 120°
2026-05-04 22:58 36.18710 -107.60521 34997 ft 545 kts 122°
2026-05-04 22:59 36.15525 -107.52002 34997 ft 545 kts 122°
2026-05-04 22:59 36.12339 -107.43489 34993 ft 545 kts 122°
2026-05-04 23:00 36.09162 -107.34974 35001 ft 545 kts 122°
2026-05-04 23:00 36.05991 -107.26477 35000 ft 544 kts 122°
2026-05-04 23:01 36.02833 -107.18037 35009 ft 544 kts 122°
2026-05-04 23:01 35.99650 -107.09554 35026 ft 544 kts 122°
2026-05-04 23:02 35.96462 -107.01086 35020 ft 544 kts 121°
2026-05-04 23:02 35.93272 -106.92632 35041 ft 543 kts 121°
2026-05-04 23:03 35.90073 -106.84180 35045 ft 544 kts 121°
2026-05-04 23:03 35.86862 -106.75714 35028 ft 544 kts 121°
2026-05-04 23:04 35.83640 -106.67247 35008 ft 545 kts 121°
2026-05-04 23:04 35.80418 -106.58799 35007 ft 545 kts 121°
2026-05-04 23:05 35.77185 -106.50344 34987 ft 546 kts 121°
2026-05-04 23:05 35.73969 -106.41956 35001 ft 544 kts 121°
2026-05-04 23:06 35.70733 -106.33535 34998 ft 543 kts 121°
2026-05-04 23:06 35.67488 -106.25116 35004 ft 544 kts 121°
2026-05-04 23:07 35.64235 -106.16701 34978 ft 544 kts 121°
2026-05-04 23:07 35.60978 -106.08296 34974 ft 545 kts 121°
2026-05-04 23:08 35.57734 -105.99946 34978 ft 545 kts 121°
2026-05-04 23:08 35.54457 -105.91533 34973 ft 546 kts 121°
2026-05-04 23:09 35.51166 -105.83104 34975 ft 547 kts 121°
2026-05-04 23:09 35.47866 -105.74679 34979 ft 548 kts 121°
2026-05-04 23:10 35.44560 -105.66256 34985 ft 548 kts 121°
2026-05-04 23:10 35.41246 -105.57833 34968 ft 548 kts 121°
2026-05-04 23:11 35.37929 -105.49420 34973 ft 547 kts 121°
2026-05-04 23:11 35.34607 -105.41023 34970 ft 547 kts 121°
2026-05-04 23:12 35.31303 -105.32696 34960 ft 547 kts 121°
2026-05-04 23:12 35.27973 -105.24319 34960 ft 547 kts 121°
2026-05-04 23:13 35.24637 -105.15953 34956 ft 546 kts 121°
2026-05-04 23:13 35.21302 -105.07606 34952 ft 546 kts 121°
2026-05-04 23:14 35.17957 -104.99256 34936 ft 547 kts 121°
2026-05-04 23:14 35.14605 -104.90910 34915 ft 547 kts 121°
2026-05-04 23:15 35.11242 -104.82561 34908 ft 547 kts 121°
2026-05-04 23:15 35.07871 -104.74213 34892 ft 549 kts 121°
2026-05-04 23:16 35.04513 -104.65913 34876 ft 549 kts 122°
2026-05-04 23:16 35.01121 -104.57550 34873 ft 550 kts 122°
2026-05-04 23:17 34.97717 -104.49182 34870 ft 551 kts 122°
2026-05-04 23:17 34.94303 -104.40807 34865 ft 551 kts 122°
2026-05-04 23:18 34.90894 -104.32446 34864 ft 551 kts 121°
2026-05-04 23:18 34.88157 -104.23658 34863 ft 557 kts 111°
2026-05-04 23:19 34.85827 -104.14666 34853 ft 557 kts 111°
2026-05-04 23:19 34.83472 -104.05680 34836 ft 557 kts 111°
2026-05-04 23:20 34.81063 -103.96799 34827 ft 556 kts 111°
2026-05-04 23:20 34.78607 -103.87885 34830 ft 555 kts 111°
2026-05-04 23:21 34.76147 -103.78981 34821 ft 555 kts 111°
2026-05-04 23:21 34.73686 -103.70080 34818 ft 556 kts 111°
2026-05-04 23:22 34.71218 -103.61171 34832 ft 556 kts 111°
2026-05-04 23:22 34.68739 -103.52254 34823 ft 556 kts 111°
2026-05-04 23:23 34.66257 -103.43351 34832 ft 557 kts 111°
2026-05-04 23:23 34.63764 -103.34446 34826 ft 557 kts 111°
2026-05-04 23:24 34.61266 -103.25548 34834 ft 557 kts 111°
2026-05-04 23:24 34.58757 -103.16637 34843 ft 557 kts 111°
2026-05-04 23:25 34.56241 -103.07732 34845 ft 558 kts 111°
2026-05-04 23:25 34.53719 -102.98829 34847 ft 558 kts 111°
2026-05-04 23:26 34.51185 -102.89910 34847 ft 559 kts 111°
2026-05-04 23:26 34.49016 -102.80850 34820 ft 562 kts 98°
2026-05-04 23:27 34.48060 -102.71460 34844 ft 562 kts 95°
2026-05-04 23:27 34.47207 -102.62041 34836 ft 563 kts 95°
2026-05-04 23:28 34.46443 -102.54207 34823 ft 564 kts 96°
2026-05-04 23:28 34.45301 -102.43249 34809 ft 564 kts 96°
2026-05-04 23:29 34.44297 -102.33816 34810 ft 565 kts 96°
2026-05-04 23:29 34.43452 -102.25903 34802 ft 565 kts 95°
2026-05-04 23:30 34.42451 -102.16526 34802 ft 565 kts 95°
2026-05-04 23:30 34.41438 -102.07102 34796 ft 564 kts 96°
2026-05-04 23:31 34.40418 -101.97690 34794 ft 563 kts 96°
2026-05-04 23:31 34.39390 -101.88281 34792 ft 563 kts 95°
2026-05-04 23:32 34.38355 -101.78874 34788 ft 563 kts 95°
2026-05-04 23:32 34.37316 -101.69491 34781 ft 563 kts 96°
2026-05-04 23:33 34.36268 -101.60107 34790 ft 562 kts 96°
2026-05-04 23:33 34.35222 -101.50789 34786 ft 562 kts 96°
2026-05-04 23:34 34.34160 -101.41406 34778 ft 562 kts 96°
2026-05-04 23:34 34.33093 -101.32034 34776 ft 562 kts 96°
2026-05-04 23:35 34.32016 -101.22653 34774 ft 563 kts 96°
2026-05-04 23:35 34.30940 -101.13335 34766 ft 563 kts 96°
2026-05-04 23:36 34.29850 -101.03952 34762 ft 563 kts 96°
2026-05-04 23:36 34.28748 -100.94556 34754 ft 564 kts 96°
2026-05-04 23:37 34.27639 -100.85170 34739 ft 564 kts 96°
2026-05-04 23:37 34.26522 -100.75778 34733 ft 564 kts 96°
2026-05-04 23:38 34.25407 -100.66449 34720 ft 564 kts 96°
2026-05-04 23:38 34.24276 -100.57060 34715 ft 564 kts 96°
2026-05-04 23:39 34.23139 -100.47667 34709 ft 564 kts 96°
2026-05-04 23:39 34.21995 -100.38286 34715 ft 563 kts 96°
2026-05-04 23:40 34.20855 -100.28992 34711 ft 563 kts 96°
2026-05-04 23:40 34.19069 -100.19801 34717 ft 562 kts 110°
2026-05-04 23:41 34.16269 -100.10986 34701 ft 562 kts 113°
2026-05-04 23:41 34.13419 -100.02199 34700 ft 561 kts 112°
2026-05-04 23:42 34.10695 -99.93360 34702 ft 561 kts 111°
2026-05-04 23:42 34.08022 -99.84503 34701 ft 561 kts 111°
2026-05-04 23:43 34.05356 -99.75719 34701 ft 561 kts 111°
2026-05-04 23:43 34.02656 -99.66884 34696 ft 562 kts 111°
2026-05-04 23:44 33.99942 -99.58043 34689 ft 562 kts 111°
2026-05-04 23:44 33.97228 -99.49213 34689 ft 555 kts 111°
2026-05-04 23:45 33.95917 -99.44967 34666 ft 541 kts 111°
2026-05-04 23:45 33.94616 -99.40775 34672 ft 527 kts 111°
2026-05-04 23:45 33.93343 -99.36690 34669 ft 514 kts 111°
2026-05-04 23:45 33.92099 -99.32703 34666 ft 501 kts 111°
2026-05-04 23:46 33.89681 -99.24962 34700 ft 496 kts 111°
2026-05-04 23:46 33.87215 -99.17088 34700 ft 510 kts 111°
2026-05-04 23:47 33.84684 -99.09023 34697 ft 516 kts 111°
2026-05-04 23:47 33.82147 -99.00950 34646 ft 512 kts 111°
2026-05-04 23:48 33.80893 -98.96967 34344 ft 507 kts 111°
2026-05-04 23:48 33.79643 -98.93004 33812 ft 509 kts 111°
2026-05-04 23:48 33.78389 -98.89036 32867 ft 520 kts 111°
2026-05-04 23:48 33.77088 -98.84921 31709 ft 531 kts 111°
2026-05-04 23:49 33.75764 -98.80736 30535 ft 540 kts 111°
2026-05-04 23:49 33.74419 -98.76497 29525 ft 543 kts 111°
2026-05-04 23:49 33.73074 -98.72275 28824 ft 537 kts 111°
2026-05-04 23:49 33.71743 -98.68129 28308 ft 525 kts 111°
2026-05-04 23:50 33.70441 -98.64075 27737 ft 516 kts 111°
2026-05-04 23:50 33.69159 -98.60085 27114 ft 508 kts 111°
2026-05-04 23:50 33.67906 -98.56156 26470 ft 501 kts 111°
2026-05-04 23:50 33.66680 -98.52281 25865 ft 492 kts 111°
2026-05-04 23:51 33.65475 -98.48468 25284 ft 484 kts 111°
2026-05-04 23:51 33.64290 -98.44724 24682 ft 476 kts 111°
2026-05-04 23:51 33.63122 -98.41042 24086 ft 468 kts 111°
2026-05-04 23:51 33.61971 -98.37420 23501 ft 460 kts 111°
2026-05-04 23:52 33.60839 -98.33864 22884 ft 453 kts 111°
2026-05-04 23:52 33.59733 -98.30397 22237 ft 448 kts 111°
2026-05-04 23:52 33.58623 -98.26918 21561 ft 443 kts 111°
2026-05-04 23:52 33.57528 -98.23487 20905 ft 438 kts 112°
2026-05-04 23:53 33.56443 -98.20100 20315 ft 432 kts 112°
2026-05-04 23:53 33.55370 -98.16766 19694 ft 426 kts 112°
2026-05-04 23:53 33.54309 -98.13474 19049 ft 421 kts 112°
2026-05-04 23:53 33.53258 -98.10219 18413 ft 416 kts 112°
2026-05-04 23:54 33.52218 -98.06997 17795 ft 411 kts 112°
2026-05-04 23:54 33.51193 -98.03823 17179 ft 406 kts 112°
2026-05-04 23:54 33.50182 -98.00694 16575 ft 400 kts 112°
2026-05-04 23:54 33.49180 -97.97597 15988 ft 397 kts 112°
2026-05-04 23:55 33.48181 -97.94514 15528 ft 396 kts 112°
2026-05-04 23:55 33.47195 -97.91472 15392 ft 385 kts 112°
2026-05-04 23:55 33.45307 -97.85609 14811 ft 374 kts 112°
2026-05-04 23:56 33.44392 -97.82762 14313 ft 369 kts 112°
2026-05-04 23:56 33.43472 -97.79904 13734 ft 366 kts 112°
2026-05-04 23:56 33.42557 -97.77066 13164 ft 363 kts 112°
2026-05-04 23:56 33.41651 -97.74257 12625 ft 359 kts 112°
2026-05-04 23:57 33.40756 -97.71484 12105 ft 355 kts 112°
2026-05-04 23:57 33.39873 -97.68752 11672 ft 348 kts 112°
2026-05-04 23:57 33.39007 -97.66078 11270 ft 341 kts 113°
2026-05-04 23:57 33.38075 -97.63512 10879 ft 332 kts 123°
2026-05-04 23:58 33.36774 -97.61293 10552 ft 320 kts 131°
2026-05-04 23:58 33.35438 -97.59206 10228 ft 312 kts 131°
2026-05-04 23:58 33.34139 -97.57170 9905 ft 305 kts 131°
2026-05-04 23:58 33.32878 -97.55169 9586 ft 298 kts 131°
2026-05-04 23:59 33.31654 -97.53205 9285 ft 291 kts 131°
2026-05-04 23:59 33.30459 -97.51272 8993 ft 287 kts 131°
2026-05-04 23:59 33.29277 -97.49359 8701 ft 285 kts 131°
2026-05-04 23:59 33.28114 -97.47475 8402 ft 285 kts 131°
2026-05-05 00:00 33.26917 -97.45606 8113 ft 281 kts 137°
2026-05-05 00:00 33.26462 -97.45038 8015 ft 279 kts 141°
2026-05-05 00:00 33.24058 -97.42523 7537 ft 275 kts 145°
2026-05-05 00:00 33.22604 -97.41059 7248 ft 272 kts 144°
2026-05-05 00:01 33.21169 -97.39598 6958 ft 269 kts 144°
2026-05-05 00:01 33.19762 -97.38149 6687 ft 265 kts 144°
2026-05-05 00:01 33.18374 -97.36709 6406 ft 262 kts 144°
2026-05-05 00:01 33.17013 -97.35290 6131 ft 258 kts 144°
2026-05-05 00:02 33.15657 -97.33873 5883 ft 260 kts 144°
2026-05-05 00:02 33.14289 -97.32444 5609 ft 262 kts 144°
2026-05-05 00:02 33.12926 -97.31017 5320 ft 260 kts 143°
2026-05-05 00:02 33.11575 -97.29602 5054 ft 257 kts 143°
2026-05-05 00:03 33.10250 -97.28223 4935 ft 248 kts 144°
2026-05-05 00:03 33.08954 -97.26882 4828 ft 246 kts 144°
2026-05-05 00:03 33.07652 -97.25544 4430 ft 252 kts 144°
2026-05-05 00:03 33.06329 -97.24183 4137 ft 251 kts 144°
2026-05-05 00:04 33.05026 -97.22838 3875 ft 244 kts 144°
2026-05-05 00:04 33.03778 -97.21549 3637 ft 237 kts 144°
2026-05-05 00:04 33.02554 -97.20285 3433 ft 227 kts 144°
2026-05-05 00:04 33.01402 -97.19094 3260 ft 213 kts 144°
2026-05-05 00:05 33.00308 -97.17965 3010 ft 204 kts 144°
2026-05-05 00:05 32.99266 -97.16892 2744 ft 193 kts 143°
2026-05-05 00:05 32.98285 -97.15879 2498 ft 180 kts 143°
2026-05-05 00:05 32.97368 -97.14933 2251 ft 169 kts 143°
2026-05-05 00:06 32.96512 -97.14047 2035 ft 157 kts 143°
2026-05-05 00:06 32.95718 -97.13230 1864 ft 149 kts 142°
2026-05-05 00:06 32.94941 -97.12429 1669 ft 145 kts 141°
2026-05-05 00:06 32.94189 -97.11652 1456 ft 141 kts 141°
2026-05-05 00:07 32.93439 -97.10877 1283 ft 145 kts 141°
2026-05-05 00:07 32.92675 -97.10087 1084 ft 146 kts 143°
2026-05-05 00:07 32.91909 -97.09285 886 ft 146 kts 144°
2026-05-05 00:07 32.91136 -97.08499 699 ft 146 kts 144°
2026-05-05 00:08 32.90384 -97.07719 620 ft 136 kts 142°
2026-05-05 00:08 32.89758 -97.07081 625 ft 96 kts 139°
2026-05-05 00:08 32.89385 -97.06698 616 ft 47 kts 139°
2026-05-05 00:08 32.89189 -97.06498 621 ft 31 kts 139°
2026-05-05 00:09 32.89083 -97.06353 619 ft 20 kts 98°
2026-05-05 00:09 32.89117 -97.06240 620 ft 8 kts 62°
2026-05-05 00:09 32.89124 -97.06223 615 ft 0 kts 63°
2026-05-05 00:09 32.89129 -97.06210 618 ft 5 kts 73°
2026-05-05 00:10 32.89102 -97.06146 615 ft 12 kts 137°
2026-05-05 00:10 32.89028 -97.06070 627 ft 16 kts 140°
2026-05-05 00:10 32.88938 -97.05979 625 ft 18 kts 139°
2026-05-05 00:10 32.88836 -97.05873 621 ft 21 kts 139°
2026-05-05 00:11 32.88724 -97.05758 626 ft 18 kts 136°
2026-05-05 00:11 32.88634 -97.05636 626 ft 21 kts 126°
2026-05-05 00:11 32.88557 -97.05477 618 ft 23 kts 114°
2026-05-05 00:11 32.88510 -97.05285 615 ft 26 kts 99°
2026-05-05 00:12 32.88503 -97.05091 626 ft 22 kts 90°
2026-05-05 00:12 32.88503 -97.04895 615 ft 25 kts 91°
2026-05-05 00:12 32.88501 -97.04696 621 ft 19 kts 90°
2026-05-05 00:12 32.88501 -97.04522 617 ft 22 kts 90°
2026-05-05 00:13 32.88500 -97.04325 625 ft 25 kts 90°
2026-05-05 00:13 32.88499 -97.04119 627 ft 19 kts 90°
2026-05-05 00:13 32.88498 -97.03951 617 ft 22 kts 89°
2026-05-05 00:13 32.88502 -97.03787 625 ft 19 kts 89°
2026-05-05 00:14 32.88497 -97.03617 615 ft 16 kts 91°
2026-05-05 00:14 32.88497 -97.03519 615 ft 13 kts 90°
2026-05-05 00:14 32.88496 -97.03395 615 ft 17 kts 90°
2026-05-05 00:14 32.88538 -97.03324 615 ft 13 kts
2026-05-05 00:15 32.88641 -97.03322 620 ft 17 kts 359°
2026-05-05 00:15 32.88771 -97.03323 625 ft 21 kts 360°
2026-05-05 00:15 32.88927 -97.03321 625 ft 24 kts
2026-05-05 00:15 32.89092 -97.03320 615 ft 21 kts 360°
2026-05-05 00:16 32.89251 -97.03320 615 ft 22 kts
2026-05-05 00:16 32.89418 -97.03319 615 ft 26 kts
2026-05-05 00:16 32.89597 -97.03317 615 ft 21 kts
2026-05-05 00:16 32.89724 -97.03317 622 ft 18 kts 360°
2026-05-05 00:17 32.89841 -97.03316 625 ft 11 kts
2026-05-05 00:17 32.89888 -97.03349 628 ft 9 kts 281°
2026-05-05 00:17 32.89886 -97.03438 623 ft 9 kts 263°
2026-05-05 00:17 32.89881 -97.03494 615 ft 1 kts 264°
2026-05-05 00:18 32.89879 -97.03512 617 ft 0 kts 264°